EW1472 Cedar Creek AU current weather conditions

sailwx.info

Wind from 286

Air temperature 24.4° C
Dewpoint 23.8° C

Last reported at 2020-Jan-22 13:47 UTC.
Time now 2020-Jan-22 14:39 UTC

Location: S 27°19' E 152°48'.
View on Google Maps.

See reports from other nearby stations

  
Tides and Currents Weather Stations Pressure Air Temp Water Temp Dewpoint Dewpoint Depression Visibility Wind Speed Wind Dir Waves Ship Positions
date/time (UTC)wind fromknots sea level pressurealtimeterstation pressurevisibilityair tempwater tempwave heightnotes
2020-Jan-22 13:47 286 24.4
2020-Jan-22 13:37 286 23.9
2020-Jan-22 13:27 286 23.9
2020-Jan-22 13:17 286 23.9
2020-Jan-22 13:07 286 23.9
2020-Jan-22 12:57 286 23.9
2020-Jan-22 12:47 146 23.9
2020-Jan-22 12:27 146 23.9
2020-Jan-22 12:07 146 23.9
2020-Jan-22 11:47 146 23.9
2020-Jan-22 11:27 146 23.9
2020-Jan-22 11:17 146 24.4
2020-Jan-22 11:07 146 24.4
2020-Jan-22 10:56 146 25.0
2020-Jan-22 10:46 146 25.6
2020-Jan-22 10:36 146 26.1
2020-Jan-22 10:26 127 26.7
2020-Jan-22 10:17 126 26.7
2020-Jan-22 09:56 271 26.7
2020-Jan-22 09:46 271 26.7
2020-Jan-22 09:16 271 27.2
2020-Jan-22 09:06 271 27.2
2020-Jan-22 08:56 271 27.2
2020-Jan-22 08:26 267 27.8
2020-Jan-22 08:16 268 27.8
2020-Jan-22 07:56 260 28.3
2020-Jan-22 07:46 262 28.3
2020-Jan-22 07:36 262 28.9
2020-Jan-22 07:06 259 29.4
2020-Jan-22 06:56 275 30.0
2020-Jan-22 06:46 252 30.0
2020-Jan-22 06:36 252 30.0
2020-Jan-22 06:26 281 30.6
2020-Jan-22 06:16 233 31.1
2020-Jan-22 06:06 262 0 gusting 6 31.7
2020-Jan-22 05:56 275 32.2
2020-Jan-22 05:46 273 31.7
2020-Jan-22 05:36 253 32.2
2020-Jan-22 05:26 190 32.8
2020-Jan-22 05:16 273 32.8
2020-Jan-22 05:06 207 0 gusting 5 33.3
2020-Jan-22 04:56 139 33.3
2020-Jan-22 04:46 277 2 gusting 2 33.9
2020-Jan-22 04:36 173 0 gusting 3 33.9
2020-Jan-22 04:16 269 33.9
2020-Jan-22 04:06 320 0 gusting 6 33.9
2020-Jan-22 03:46 265 35.0
2020-Jan-22 03:25 186 34.4
2020-Jan-22 03:15 334 0 gusting 3 34.4
2020-Jan-22 02:55 218 34.4
2020-Jan-22 02:45 157 34.4
2020-Jan-22 02:35 151 34.4
2020-Jan-22 02:25 157 0 gusting 2 33.9
2020-Jan-22 02:15 213 33.9
2020-Jan-22 02:05 277 0 gusting 1 33.9
2020-Jan-22 01:55 284 33.3
2020-Jan-22 01:45 163 1 gusting 3 33.3
2020-Jan-22 01:25 237 32.8
2020-Jan-22 00:55 167 32.2
2020-Jan-22 00:45 170 32.2
2020-Jan-22 00:35 172 31.7
2020-Jan-22 00:15 209 31.1
2020-Jan-22 00:05 198 30.6
2020-Jan-21 23:55 194 30.0
2020-Jan-21 23:45 194 30.0
2020-Jan-21 23:35 212 29.4
2020-Jan-21 23:25 212 28.9
2020-Jan-21 23:05 083 28.3
2020-Jan-21 22:55 224 27.8
2020-Jan-21 22:45 224 27.8
2020-Jan-21 22:25 267 26.7
2020-Jan-21 22:05 293 25.6
2020-Jan-21 21:55 293 25.6
2020-Jan-21 21:45 293 24.4
2020-Jan-21 21:35 292 23.3
2020-Jan-21 21:25 293 22.8
2020-Jan-21 20:55 292 22.2
2020-Jan-21 20:25 293 21.1
2020-Jan-21 20:15 293 21.1
2020-Jan-21 20:04 293 20.6
2020-Jan-21 19:45 293 20.6
2020-Jan-21 19:15 292 20.6
2020-Jan-21 13:20 323 22.2
2020-Jan-21 13:10 323 22.2
2020-Jan-21 13:00 323 22.2
2020-Jan-21 12:40 323 22.2
2020-Jan-21 12:30 271 22.2
2020-Jan-21 12:20 314 22.2
2020-Jan-21 11:50 314 21.7
2020-Jan-21 11:30 314 22.2
2020-Jan-21 11:10 314 22.2
2020-Jan-21 11:00 314 22.2
2020-Jan-21 10:50 314 22.8
2020-Jan-21 10:40 314 22.8
2020-Jan-21 10:30 314 22.8
2020-Jan-21 10:20 314 23.3
2020-Jan-21 10:10 314 23.3
2020-Jan-21 09:59 314 23.3
2020-Jan-21 09:39 312 23.3
2020-Jan-21 09:30 312 23.3
2020-Jan-21 09:20 312 23.3
2020-Jan-21 09:10 312 23.3
2020-Jan-21 09:00 312 23.9
2020-Jan-21 08:49 298 23.9
2020-Jan-21 08:39 298 23.9
2020-Jan-21 08:29 298 23.9
2020-Jan-21 08:19 298 23.9
2020-Jan-21 07:49 296 23.9
2020-Jan-21 07:29 296 24.4
2020-Jan-21 07:19 296 24.4
2020-Jan-21 07:09 296 25.0
2020-Jan-21 06:49 296 24.4
2020-Jan-21 06:39 296 23.9
2020-Jan-21 06:29 317 23.9
2020-Jan-21 06:09 296 23.9
2020-Jan-21 05:59 331 0 gusting 3 23.9
2020-Jan-21 05:28 293 31.1
2020-Jan-21 05:18 281 31.1
2020-Jan-21 05:08 227 32.2
2020-Jan-21 04:58 261 32.8
2020-Jan-21 04:48 239 33.3
2020-Jan-21 04:38 197 0 gusting 4 34.4
2020-Jan-21 04:28 283 34.4
2020-Jan-21 03:58 144 35.0
2020-Jan-21 03:48 217 35.0
2020-Jan-21 03:38 215 35.6
2020-Jan-21 03:28 134 35.6
2020-Jan-21 03:18 141 36.1
2020-Jan-21 03:07 213 36.1
2020-Jan-21 02:58 163 36.1
2020-Jan-21 02:47 207 36.1
2020-Jan-21 02:37 332 36.1
2020-Jan-21 02:27 333 35.6
2020-Jan-21 02:17 139 35.0
2020-Jan-21 02:07 262 34.4
2020-Jan-21 01:57 307 35.0
2020-Jan-21 01:47 248 35.0
2020-Jan-21 01:37 167 34.4
2020-Jan-21 01:27 054 34.4
2020-Jan-21 01:17 333 34.4
2020-Jan-21 01:07 146 33.9
2020-Jan-21 00:57 273 33.9
2020-Jan-21 00:47 174 33.3
2020-Jan-21 00:27 171 32.8
2020-Jan-21 00:17 147 32.2
2020-Jan-21 00:07 146 31.7
2020-Jan-20 23:47 265 31.1
2020-Jan-20 23:37 222 31.1
2020-Jan-20 23:17 236 30.6
2020-Jan-20 23:06 244 30.0
2020-Jan-20 22:46 262 29.4
2020-Jan-20 22:36 171 28.9
2020-Jan-20 22:26 296 28.3
2020-Jan-20 21:56 296 26.7
2020-Jan-20 21:46 310 26.1
2020-Jan-20 21:26 084 25.0
2020-Jan-20 21:06 085 24.4
2020-Jan-20 20:56 084 23.9
2020-Jan-20 20:46 084 23.3
2020-Jan-20 20:36 094 23.3
2020-Jan-20 20:26 095 23.3
2020-Jan-20 20:06 106 22.8
2020-Jan-20 19:55 107 22.8
2020-Jan-20 19:35 106 23.3
2020-Jan-20 19:25 292 23.3
2020-Jan-20 19:15 317 23.3
2020-Jan-20 19:05 325 0 gusting 2 23.9
2020-Jan-20 18:45 188 23.3
2020-Jan-20 18:35 188 23.3
2020-Jan-20 18:15 253 23.3
2020-Jan-20 17:55 253 23.3
2020-Jan-20 17:35 253 23.3
2020-Jan-20 17:25 253 23.3
2020-Jan-20 17:15 253 23.3
2020-Jan-20 16:45 253 23.3
2020-Jan-20 16:34 253 23.9
2020-Jan-20 16:24 253 23.9
2020-Jan-20 16:14 253 23.9
2020-Jan-20 16:04 253 23.9
2020-Jan-20 15:44 253 24.4
2020-Jan-20 15:34 253 24.4
2020-Jan-20 14:54 267 24.4
2020-Jan-20 14:34 162 24.4
2020-Jan-20 14:24 161 24.4
2020-Jan-20 14:13 161 24.4
2020-Jan-20 14:03 162 24.4